Year,Month,Day,Hour,Minute,Value (Times are PST for windgust in km/hr)
2017,06,10,00,00,3.20
2017,06,10,00,01,6.40
2017,06,10,00,02,4.80
2017,06,10,00,03,8.10
2017,06,10,00,04,6.40
2017,06,10,00,07,11.30
2017,06,10,00,08,4.80
2017,06,10,00,09,6.40
2017,06,10,00,10,6.40
2017,06,10,00,13,6.40
2017,06,10,00,34,6.40
2017,06,10,00,35,3.20
2017,06,10,00,36,1.60
2017,06,10,00,38,14.50
2017,06,10,00,39,14.50
2017,06,10,00,40,8.10
2017,06,10,00,41,11.30
2017,06,10,00,42,11.30
2017,06,10,00,43,11.30
2017,06,10,00,44,12.90
2017,06,10,00,45,9.60
2017,06,10,00,47,14.50
2017,06,10,00,48,14.50
2017,06,10,00,49,9.60
2017,06,10,00,50,14.50
2017,06,10,00,51,17.70
2017,06,10,00,52,8.10
2017,06,10,00,53,11.30
2017,06,10,00,54,9.60
2017,06,10,00,55,20.90
2017,06,10,00,56,16.10
2017,06,10,00,57,16.10
2017,06,10,00,58,16.10
2017,06,10,00,59,17.70
2017,06,10,01,00,17.70
2017,06,10,01,01,12.90
2017,06,10,01,02,11.30
2017,06,10,01,03,14.50
2017,06,10,01,04,11.30
2017,06,10,01,05,11.30
2017,06,10,01,06,8.10
2017,06,10,01,07,9.60
2017,06,10,01,08,9.60
2017,06,10,01,09,9.60
2017,06,10,01,10,19.30
2017,06,10,01,11,17.70
2017,06,10,01,12,14.50
2017,06,10,01,13,11.30
2017,06,10,01,14,6.40
2017,06,10,01,15,14.50
2017,06,10,01,16,8.10
2017,06,10,01,17,8.10
2017,06,10,01,18,11.30
2017,06,10,01,19,9.60
2017,06,10,01,20,8.10
2017,06,10,01,21,6.40
2017,06,10,01,23,8.10
2017,06,10,01,24,17.70
2017,06,10,01,25,16.10
2017,06,10,01,26,17.70
2017,06,10,01,27,19.30
2017,06,10,01,28,9.60
2017,06,10,01,29,8.10
2017,06,10,01,30,12.90
2017,06,10,01,31,14.50
2017,06,10,01,32,11.30
2017,06,10,01,33,9.60
2017,06,10,01,34,4.80
2017,06,10,01,35,9.60
2017,06,10,01,36,14.50
2017,06,10,01,37,8.10
2017,06,10,01,38,11.30
2017,06,10,01,39,6.40
2017,06,10,01,41,8.10
2017,06,10,01,42,6.40
2017,06,10,01,43,1.60
2017,06,10,01,46,8.10
2017,06,10,01,47,4.80
2017,06,10,01,48,11.30
2017,06,10,01,49,11.30
2017,06,10,01,50,8.10
2017,06,10,01,51,3.20
2017,06,10,01,52,1.60
2017,06,10,01,56,4.80
2017,06,10,02,06,6.40
2017,06,10,02,07,6.40
2017,06,10,02,10,8.10
2017,06,10,02,11,6.40
2017,06,10,02,12,4.80
2017,06,10,02,13,8.10
2017,06,10,02,14,4.80
2017,06,10,02,15,6.40
2017,06,10,02,16,8.10
2017,06,10,02,17,11.30
2017,06,10,02,18,11.30
2017,06,10,02,19,11.30
2017,06,10,02,20,11.30
2017,06,10,02,21,6.40
2017,06,10,02,22,3.20
2017,06,10,07,25,4.80
2017,06,10,07,26,3.20
2017,06,10,09,18,1.60
2017,06,10,09,19,1.60
2017,06,10,09,20,8.10
2017,06,10,09,21,8.10
2017,06,10,09,22,8.10
2017,06,10,09,23,8.10
2017,06,10,09,24,8.10
2017,06,10,09,25,4.80
2017,06,10,09,27,4.80
2017,06,10,09,28,4.80
2017,06,10,10,59,6.40
2017,06,10,11,00,4.80
2017,06,10,11,05,6.40
2017,06,10,11,06,3.20
2017,06,10,11,07,1.60
2017,06,10,11,08,9.60
2017,06,10,11,09,6.40
2017,06,10,11,10,4.80
2017,06,10,11,11,3.20
2017,06,10,11,15,4.80
2017,06,10,11,23,4.80
2017,06,10,11,24,6.40
2017,06,10,11,25,6.40
2017,06,10,11,26,6.40
2017,06,10,11,27,8.10
2017,06,10,11,28,3.20
2017,06,10,11,29,8.10
2017,06,10,11,30,9.60
2017,06,10,11,31,9.60
2017,06,10,11,32,8.10
2017,06,10,11,33,6.40
2017,06,10,11,34,8.10
2017,06,10,11,35,14.50
2017,06,10,11,36,9.60
2017,06,10,11,37,11.30
2017,06,10,11,38,11.30
2017,06,10,11,39,11.30
2017,06,10,11,40,9.60
2017,06,10,11,41,8.10
2017,06,10,11,42,6.40
2017,06,10,11,43,3.20
2017,06,10,11,44,8.10
2017,06,10,11,45,11.30
2017,06,10,11,46,11.30
2017,06,10,11,47,9.60
2017,06,10,11,48,6.40
2017,06,10,11,49,9.60
2017,06,10,11,50,6.40
2017,06,10,11,51,6.40
2017,06,10,11,52,8.10
2017,06,10,11,53,6.40
2017,06,10,11,54,1.60
2017,06,10,11,55,3.20
2017,06,10,11,56,6.40
2017,06,10,11,59,9.60
2017,06,10,12,00,11.30
2017,06,10,12,01,9.60
2017,06,10,12,02,11.30
2017,06,10,12,03,8.10
2017,06,10,12,04,3.20
2017,06,10,12,05,8.10
2017,06,10,12,06,6.40
2017,06,10,12,07,8.10
2017,06,10,12,08,9.60
2017,06,10,12,09,9.60
2017,06,10,12,10,6.40
2017,06,10,12,11,11.30
2017,06,10,12,12,12.90
2017,06,10,12,13,6.40
2017,06,10,12,14,8.10
2017,06,10,12,15,6.40
2017,06,10,12,16,9.60
2017,06,10,12,17,9.60
2017,06,10,12,18,12.90
2017,06,10,12,19,14.50
2017,06,10,12,20,11.30
2017,06,10,12,21,16.10
2017,06,10,12,22,14.50
2017,06,10,12,23,16.10
2017,06,10,12,24,8.10
2017,06,10,12,25,9.60
2017,06,10,12,26,9.60
2017,06,10,12,28,11.30
2017,06,10,12,29,6.40
2017,06,10,12,30,6.40
2017,06,10,12,31,9.60
2017,06,10,12,32,9.60
2017,06,10,12,33,9.60
2017,06,10,12,34,11.30
2017,06,10,12,35,11.30
2017,06,10,12,36,12.90
2017,06,10,12,37,9.60
2017,06,10,12,38,17.70
2017,06,10,12,39,14.50
2017,06,10,12,40,16.10
2017,06,10,12,41,17.70
2017,06,10,12,42,14.50
2017,06,10,12,43,9.60
2017,06,10,12,44,8.10
2017,06,10,12,45,16.10
2017,06,10,12,46,17.70
2017,06,10,12,47,8.10
2017,06,10,12,48,14.50
2017,06,10,12,49,12.90
2017,06,10,12,50,11.30
2017,06,10,12,51,16.10
2017,06,10,12,52,16.10
2017,06,10,12,53,11.30
2017,06,10,12,54,9.60
2017,06,10,12,55,6.40
2017,06,10,12,56,9.60
2017,06,10,12,57,4.80
2017,06,10,12,58,3.20
2017,06,10,12,59,11.30
2017,06,10,13,00,14.50
2017,06,10,13,01,11.30
2017,06,10,13,02,11.30
2017,06,10,13,03,14.50
2017,06,10,13,04,9.60
2017,06,10,13,05,6.40
2017,06,10,13,06,11.30
2017,06,10,13,07,9.60
2017,06,10,13,08,14.50
2017,06,10,13,09,9.60
2017,06,10,13,10,9.60
2017,06,10,13,11,3.20
2017,06,10,13,12,9.60
2017,06,10,13,13,9.60
2017,06,10,13,14,11.30
2017,06,10,13,15,9.60
2017,06,10,13,16,9.60
2017,06,10,13,17,11.30
2017,06,10,13,18,11.30
2017,06,10,13,19,12.90
2017,06,10,13,20,11.30
2017,06,10,13,21,17.70
2017,06,10,13,22,11.30
2017,06,10,13,23,14.50
2017,06,10,13,24,16.10
2017,06,10,13,25,17.70
2017,06,10,13,26,11.30
2017,06,10,13,27,12.90
2017,06,10,13,28,11.30
2017,06,10,13,29,14.50
2017,06,10,13,30,14.50
2017,06,10,13,31,16.10
2017,06,10,13,32,14.50
2017,06,10,13,33,14.50
2017,06,10,13,34,19.30
2017,06,10,13,35,12.90
2017,06,10,13,36,11.30
2017,06,10,13,37,11.30
2017,06,10,13,38,16.10
2017,06,10,13,39,19.30
2017,06,10,13,40,16.10
2017,06,10,13,41,17.70
2017,06,10,13,42,19.30
2017,06,10,13,43,14.50
2017,06,10,13,44,19.30
2017,06,10,13,45,11.30
2017,06,10,13,46,11.30
2017,06,10,13,47,9.60
2017,06,10,13,48,14.50
2017,06,10,13,49,9.60
2017,06,10,13,50,16.10
2017,06,10,13,51,9.60
2017,06,10,13,52,9.60
2017,06,10,13,53,8.10
2017,06,10,13,54,8.10
2017,06,10,13,55,11.30
2017,06,10,13,56,11.30
2017,06,10,13,57,8.10
2017,06,10,13,58,9.60
2017,06,10,13,59,9.60
2017,06,10,14,00,6.40
2017,06,10,14,01,6.40
2017,06,10,14,02,8.10
2017,06,10,14,03,6.40
2017,06,10,14,04,6.40
2017,06,10,14,05,4.80
2017,06,10,14,06,14.50
2017,06,10,14,07,9.60
2017,06,10,14,08,11.30
2017,06,10,14,09,11.30
2017,06,10,14,10,11.30
2017,06,10,14,11,9.60
2017,06,10,14,12,14.50
2017,06,10,14,13,9.60
2017,06,10,14,14,9.60
2017,06,10,14,15,8.10
2017,06,10,14,17,8.10
2017,06,10,14,18,9.60
2017,06,10,14,19,14.50
2017,06,10,14,20,12.90
2017,06,10,14,21,14.50
2017,06,10,14,22,16.10
2017,06,10,14,23,14.50
2017,06,10,14,24,11.30
2017,06,10,14,25,14.50
2017,06,10,14,26,17.70
2017,06,10,14,27,16.10
2017,06,10,14,28,17.70
2017,06,10,14,29,9.60
2017,06,10,14,30,11.30
2017,06,10,14,31,14.50
2017,06,10,14,32,17.70
2017,06,10,14,33,17.70
2017,06,10,14,34,17.70
2017,06,10,14,35,11.30
2017,06,10,14,36,12.90
2017,06,10,14,37,12.90
2017,06,10,14,38,17.70
2017,06,10,14,39,14.50
2017,06,10,14,40,14.50
2017,06,10,14,41,11.30
2017,06,10,14,42,16.10
2017,06,10,14,43,11.30
2017,06,10,14,44,11.30
2017,06,10,14,45,9.60
2017,06,10,14,46,8.10
2017,06,10,14,47,6.40
2017,06,10,14,48,8.10
2017,06,10,14,49,11.30
2017,06,10,14,50,14.50
2017,06,10,14,51,11.30
2017,06,10,14,52,3.20
2017,06,10,14,53,4.80
2017,06,10,14,54,11.30
2017,06,10,14,55,8.10
2017,06,10,14,56,8.10
2017,06,10,14,57,8.10
2017,06,10,14,58,9.60
2017,06,10,14,59,8.10
2017,06,10,15,00,4.80
2017,06,10,15,02,6.40
2017,06,10,15,03,6.40
2017,06,10,15,04,6.40
2017,06,10,15,05,8.10
2017,06,10,15,06,1.60
2017,06,10,15,17,4.80
2017,06,10,15,18,6.40
2017,06,10,15,19,6.40
2017,06,10,15,27,3.20
2017,06,10,15,28,9.60
2017,06,10,15,29,8.10
2017,06,10,15,30,8.10
2017,06,10,15,31,8.10
2017,06,10,15,32,3.20
2017,06,10,15,40,1.60
2017,06,10,15,41,4.80
2017,06,10,15,42,6.40
2017,06,10,15,43,4.80
2017,06,10,15,44,3.20
2017,06,10,15,46,4.80
2017,06,10,15,47,3.20
2017,06,10,15,48,6.40
2017,06,10,15,50,3.20
2017,06,10,15,53,3.20
2017,06,10,15,54,4.80
2017,06,10,15,56,1.60
2017,06,10,15,59,4.80
2017,06,10,16,00,8.10
2017,06,10,16,01,4.80
2017,06,10,16,03,3.20
2017,06,10,16,04,6.40
2017,06,10,16,05,6.40
2017,06,10,16,06,1.60
2017,06,10,16,10,4.80
2017,06,10,16,11,9.60
2017,06,10,16,12,9.60
2017,06,10,16,13,9.60
2017,06,10,16,14,14.50
2017,06,10,16,15,16.10
2017,06,10,16,16,17.70
2017,06,10,16,17,9.60
2017,06,10,16,18,16.10
2017,06,10,16,19,14.50
2017,06,10,16,20,17.70
2017,06,10,16,21,17.70
2017,06,10,16,22,11.30
2017,06,10,16,23,11.30
2017,06,10,16,24,11.30
2017,06,10,16,25,14.50
2017,06,10,16,26,17.70
2017,06,10,16,27,17.70
2017,06,10,16,28,19.30
2017,06,10,16,29,17.70
2017,06,10,16,30,12.90
2017,06,10,16,31,11.30
2017,06,10,16,32,11.30
2017,06,10,16,33,9.60
2017,06,10,16,34,11.30
2017,06,10,16,35,11.30
2017,06,10,16,36,9.60
2017,06,10,16,37,11.30
2017,06,10,16,38,11.30
2017,06,10,16,39,11.30
2017,06,10,16,40,14.50
2017,06,10,16,41,9.60
2017,06,10,16,42,14.50
2017,06,10,16,43,11.30
2017,06,10,16,44,16.10
2017,06,10,16,45,14.50
2017,06,10,16,46,14.50
2017,06,10,16,47,9.60
2017,06,10,16,48,14.50
2017,06,10,16,49,16.10
2017,06,10,16,50,12.90
2017,06,10,16,51,9.60
2017,06,10,16,52,16.10
2017,06,10,16,53,9.60
2017,06,10,16,54,19.30
2017,06,10,16,55,17.70
2017,06,10,16,56,16.10
2017,06,10,16,57,16.10
2017,06,10,16,58,11.30
2017,06,10,16,59,19.30
2017,06,10,17,00,19.30
2017,06,10,17,01,24.20
2017,06,10,17,02,19.30
2017,06,10,17,03,17.70
2017,06,10,17,04,17.70
2017,06,10,17,05,17.70
2017,06,10,17,06,17.70
2017,06,10,17,07,17.70
2017,06,10,17,08,9.60
2017,06,10,17,09,19.30
2017,06,10,17,10,19.30
2017,06,10,17,11,14.50
2017,06,10,17,12,17.70
2017,06,10,17,13,14.50
2017,06,10,17,14,17.70
2017,06,10,17,15,17.70
2017,06,10,17,16,20.90
2017,06,10,17,17,19.30
2017,06,10,17,18,19.30
2017,06,10,17,19,19.30
2017,06,10,17,20,20.90
2017,06,10,17,21,20.90
2017,06,10,17,22,19.30
2017,06,10,17,23,11.30
2017,06,10,17,24,19.30
2017,06,10,17,25,22.50
2017,06,10,17,26,16.10
2017,06,10,17,27,22.50
2017,06,10,17,28,20.90
2017,06,10,17,29,20.90
2017,06,10,17,30,19.30
2017,06,10,17,31,14.50
2017,06,10,17,32,20.90
2017,06,10,17,33,20.90
2017,06,10,17,34,22.50
2017,06,10,17,35,19.30
2017,06,10,17,36,22.50
2017,06,10,17,37,24.20
2017,06,10,17,38,16.10
2017,06,10,17,39,17.70
2017,06,10,17,40,11.30
2017,06,10,17,41,8.10
2017,06,10,17,42,17.70
2017,06,10,17,43,20.90
2017,06,10,17,44,20.90
2017,06,10,17,45,20.90
2017,06,10,17,46,24.20
2017,06,10,17,47,22.50
2017,06,10,17,48,19.30
2017,06,10,17,49,17.70
2017,06,10,17,50,16.10
2017,06,10,17,51,16.10
2017,06,10,17,52,19.30
2017,06,10,17,53,19.30
2017,06,10,17,54,22.50
2017,06,10,17,55,16.10
2017,06,10,17,56,11.30
2017,06,10,17,57,11.30
2017,06,10,17,58,11.30
2017,06,10,17,59,11.30
2017,06,10,18,00,16.10
2017,06,10,18,01,19.30
2017,06,10,18,02,19.30
2017,06,10,18,03,17.70
2017,06,10,18,04,16.10
2017,06,10,18,05,11.30
2017,06,10,18,06,11.30
2017,06,10,18,07,12.90
2017,06,10,18,08,9.60
2017,06,10,18,09,9.60
2017,06,10,18,10,6.40
2017,06,10,18,11,16.10
2017,06,10,18,12,16.10
2017,06,10,18,13,11.30
2017,06,10,18,14,11.30
2017,06,10,18,15,16.10
2017,06,10,18,16,9.60
2017,06,10,18,17,11.30
2017,06,10,18,18,16.10
2017,06,10,18,19,8.10
2017,06,10,18,20,8.10
2017,06,10,18,21,16.10
2017,06,10,18,22,17.70
2017,06,10,18,23,14.50
2017,06,10,18,24,11.30
2017,06,10,18,25,11.30
2017,06,10,18,26,11.30
2017,06,10,18,27,6.40
2017,06,10,18,28,9.60
2017,06,10,18,29,9.60
2017,06,10,18,30,14.50
2017,06,10,18,31,19.30
2017,06,10,18,32,16.10
2017,06,10,18,33,11.30
2017,06,10,18,34,16.10
2017,06,10,18,35,14.50
2017,06,10,18,36,11.30
2017,06,10,18,37,14.50
2017,06,10,18,38,9.60
2017,06,10,18,39,17.70
2017,06,10,18,40,14.50
2017,06,10,18,41,6.40
2017,06,10,18,42,11.30
2017,06,10,18,43,14.50
2017,06,10,18,44,14.50
2017,06,10,18,45,11.30
2017,06,10,18,46,14.50
2017,06,10,18,47,14.50
2017,06,10,18,48,16.10
2017,06,10,18,49,11.30
2017,06,10,18,50,11.30
2017,06,10,18,51,11.30
2017,06,10,18,52,12.90
2017,06,10,18,53,14.50
2017,06,10,18,54,16.10
2017,06,10,18,55,14.50
2017,06,10,18,56,16.10
2017,06,10,18,57,16.10
2017,06,10,18,58,11.30
2017,06,10,18,59,14.50
2017,06,10,19,00,9.60
2017,06,10,19,01,9.60
2017,06,10,19,02,14.50
2017,06,10,19,03,12.90
2017,06,10,19,04,11.30
2017,06,10,19,05,8.10
2017,06,10,19,06,9.60
2017,06,10,19,07,11.30
2017,06,10,19,08,14.50
2017,06,10,19,09,12.90
2017,06,10,19,10,11.30
2017,06,10,19,11,11.30
2017,06,10,19,12,14.50
2017,06,10,19,13,16.10
2017,06,10,19,14,9.60
2017,06,10,19,15,12.90
2017,06,10,19,16,16.10
2017,06,10,19,17,8.10
2017,06,10,19,18,9.60
2017,06,10,19,19,8.10
2017,06,10,19,20,8.10
2017,06,10,19,21,11.30
2017,06,10,19,22,11.30
2017,06,10,19,23,11.30
2017,06,10,19,24,9.60
2017,06,10,19,25,11.30
2017,06,10,19,26,9.60
2017,06,10,19,27,9.60
2017,06,10,19,28,11.30
2017,06,10,19,29,9.60
2017,06,10,19,30,8.10
2017,06,10,19,31,6.40
2017,06,10,19,32,6.40
2017,06,10,19,33,9.60
2017,06,10,19,34,9.60
2017,06,10,19,35,4.80
2017,06,10,19,36,11.30
2017,06,10,19,37,9.60
2017,06,10,19,38,9.60
2017,06,10,19,39,9.60
2017,06,10,19,40,11.30
2017,06,10,19,41,9.60
2017,06,10,19,42,9.60
2017,06,10,19,43,8.10
2017,06,10,19,44,8.10
2017,06,10,19,45,9.60
2017,06,10,19,46,8.10
2017,06,10,19,47,11.30
2017,06,10,19,48,8.10
2017,06,10,19,49,9.60
2017,06,10,19,50,9.60
2017,06,10,19,51,9.60
2017,06,10,19,52,9.60
2017,06,10,19,53,11.30
2017,06,10,19,54,8.10
2017,06,10,19,55,6.40
2017,06,10,19,56,11.30
2017,06,10,19,57,8.10
2017,06,10,19,58,6.40
2017,06,10,19,59,9.60
2017,06,10,20,00,14.50
2017,06,10,20,01,11.30
2017,06,10,20,02,6.40
2017,06,10,20,03,6.40
2017,06,10,20,04,6.40
2017,06,10,20,05,8.10
2017,06,10,20,06,11.30
2017,06,10,20,07,6.40
2017,06,10,20,08,9.60
2017,06,10,20,09,8.10
2017,06,10,20,10,6.40
2017,06,10,20,11,8.10
2017,06,10,20,12,8.10
2017,06,10,20,13,9.60
2017,06,10,20,14,8.10
2017,06,10,20,15,9.60
2017,06,10,20,16,9.60
2017,06,10,20,17,8.10
2017,06,10,20,18,4.80
2017,06,10,20,19,8.10
2017,06,10,20,20,9.60
2017,06,10,20,21,11.30
2017,06,10,20,22,9.60
2017,06,10,20,23,8.10
2017,06,10,20,24,8.10
2017,06,10,20,25,6.40
2017,06,10,20,26,9.60
2017,06,10,20,27,12.90
2017,06,10,20,28,11.30
2017,06,10,20,29,11.30
2017,06,10,20,30,4.80
2017,06,10,20,31,6.40
2017,06,10,20,32,4.80
2017,06,10,20,33,8.10
2017,06,10,20,34,12.90
2017,06,10,20,35,16.10
2017,06,10,20,36,11.30
2017,06,10,20,37,8.10
2017,06,10,20,38,9.60
2017,06,10,20,39,11.30
2017,06,10,20,40,9.60
2017,06,10,20,41,6.40
2017,06,10,20,42,8.10
2017,06,10,20,43,9.60
2017,06,10,20,44,9.60
2017,06,10,20,45,14.50
2017,06,10,20,46,11.30
2017,06,10,20,47,11.30
2017,06,10,20,48,9.60
2017,06,10,20,49,9.60
2017,06,10,20,50,11.30
2017,06,10,20,51,9.60
2017,06,10,20,52,9.60
2017,06,10,20,53,9.60
2017,06,10,20,54,9.60
2017,06,10,20,55,8.10
2017,06,10,20,56,11.30
2017,06,10,20,57,8.10
2017,06,10,20,58,6.40
2017,06,10,20,59,6.40
2017,06,10,21,00,8.10
2017,06,10,21,01,8.10
2017,06,10,21,02,4.80
2017,06,10,21,03,6.40
2017,06,10,21,04,6.40
2017,06,10,21,05,8.10
2017,06,10,21,06,4.80
2017,06,10,21,08,6.40
2017,06,10,21,09,4.80
2017,06,10,21,10,4.80
2017,06,10,21,11,4.80
2017,06,10,21,12,6.40
2017,06,10,21,13,3.20
2017,06,10,21,19,4.80
2017,06,10,21,20,4.80
2017,06,10,21,21,1.60
2017,06,10,21,28,3.20
2017,06,10,21,29,6.40
2017,06,10,21,30,3.20
2017,06,10,21,31,6.40
2017,06,10,21,32,8.10
2017,06,10,21,33,4.80
2017,06,10,21,34,4.80
2017,06,10,21,35,3.20
2017,06,10,21,37,8.10
2017,06,10,21,39,8.10
2017,06,10,21,40,6.40
2017,06,10,21,41,8.10
2017,06,10,21,42,8.10
2017,06,10,21,43,6.40
2017,06,10,21,44,3.20
2017,06,10,21,48,4.80
2017,06,10,21,50,1.60
2017,06,10,21,52,1.60
2017,06,10,22,01,6.40
2017,06,10,22,02,4.80
2017,06,10,22,03,9.60
2017,06,10,22,04,6.40
2017,06,10,22,05,1.60
2017,06,10,22,11,4.80
2017,06,10,22,12,4.80
2017,06,10,22,13,9.60
2017,06,10,22,14,6.40
2017,06,10,22,15,3.20
2017,06,10,22,16,6.40
2017,06,10,22,35,8.10
2017,06,10,22,36,9.60
2017,06,10,22,37,9.60
2017,06,10,22,38,8.10
2017,06,10,22,39,8.10
2017,06,10,22,40,8.10
2017,06,10,22,41,6.40
2017,06,10,22,42,8.10
2017,06,10,22,43,4.80
2017,06,10,22,44,4.80
2017,06,10,22,58,6.40
2017,06,10,22,59,6.40
2017,06,10,23,00,6.40
2017,06,10,23,01,6.40
2017,06,10,23,02,6.40
2017,06,10,23,03,8.10
2017,06,10,23,04,8.10
2017,06,10,23,05,8.10
2017,06,10,23,06,6.40
2017,06,10,23,07,6.40
2017,06,10,23,08,6.40
2017,06,10,23,10,4.80
2017,06,10,23,11,6.40
2017,06,10,23,12,6.40
2017,06,10,23,13,9.60
2017,06,10,23,14,6.40
2017,06,10,23,16,4.80
2017,06,10,23,17,4.80
2017,06,10,23,20,6.40
2017,06,10,23,21,3.20
2017,06,10,23,23,6.40
2017,06,10,23,24,6.40
2017,06,10,23,25,8.10
2017,06,10,23,26,6.40
2017,06,10,23,27,4.80
2017,06,10,23,28,6.40
2017,06,10,23,29,6.40
2017,06,10,23,30,3.20
2017,06,10,23,44,4.80
2017,06,10,23,45,4.80
2017,06,10,23,56,1.60
